#timestamp,LO_Frequency,Hit,StdDev 
1560970815.2,286047002.6,N
1560970835.1,286047002.7,N
1560970836.0,286047002.7,N
1560970855.8,286047002.3,N
1560970875.6,286047004.4,Y
1560970895.5,286047000.9,P
1560970915.3,286046999.2,N
1560970935.1,286046996.7,N
1560970955.9,286046999.6,N
1560970975.7,286046996.8,N
1560970995.5,286046996.8,N
1560971015.4,286046999.5,N
1560971035.2,286046998.0,N
1560971055.0,286046998.9,N
1560971055.9,286046998.9,N
1560971075.8,286046996.6,N
1560971095.6,286046997.3,N
1560971115.4,286046997.4,N
1560971135.3,286046999.6,N
1560971155.1,286047000.8,N
1560971175.8,286047002.3,N
1560971195.7,286047000.5,N
1560971215.5,286047001.0,N
1560971235.3,286047000.3,N
1560971255.2,286047000.2,N
1560971275.0,286046998.2,N
1560971275.9,286046998.2,N
1560971295.7,286046999.2,N
1560971315.6,286046998.6,N
1560971335.4,286046999.4,N
1560971355.2,286046998.1,N
1560971375.1,286047000.6,N
1560971376.0,286047011.9,Y
1560971395.8,286047001.1,P
1560971415.7,286047004.0,P
1560971435.5,286047004.3,N
1560971455.3,286047002.9,N
1560971475.2,286047004.1,N
1560971495.9,286047003.0,N
1560971515.7,286047006.0,Y
1560971535.6,286047004.1,P
1560971555.4,286047011.9,P
1560971575.2,286047001.8,N
1560971595.1,286047001.8,N
1560971596.0,286047001.8,N
1560971615.8,286047005.1,N
1560971635.6,286047003.7,N
1560971655.5,286047002.0,N
1560971675.3,286046999.8,N
1560971695.1,286047001.2,N
1560971715.9,286046998.2,N
1560971735.7,286046998.7,N
1560971755.5,286046998.4,N
1560971775.4,286047000.9,N
1560971795.2,286046998.9,N
1560971815.0,286046999.5,N
1560971815.9,286046999.5,N
1560971835.8,286046997.2,N
1560971855.6,286046997.6,N
1560971875.4,286046995.8,N
1560971895.3,286046995.6,N
1560971915.1,286046995.6,N
1560971916.0,286046995.6,N
1560971935.8,286046997.5,N
1560971955.7,286046997.9,N
1560971975.5,286046996.0,N
1560971995.3,286046993.9,N
1560972015.2,286046996.3,N
1560972035.9,286046996.2,N
1560972055.7,286046996.2,N
1560972075.6,286046994.0,N
1560972095.4,286046994.8,N
1560972115.2,286046996.1,N
1560972135.1,286046994.3,N
1560972136.0,286046994.3,N
1560972155.8,286046995.8,N
1560972175.6,286046995.0,N
1560972195.5,286046997.3,N
1560972215.3,286046995.6,N
1560972235.1,286046994.0,Y
1560972255.9,286047002.7,P
1560972275.7,286047000.9,N
1560972295.5,286046998.7,N
1560972315.4,286046997.9,N
1560972335.2,286046995.8,N
1560972355.0,286046995.9,N
1560972355.9,286046995.9,N
1560972375.8,286046993.6,N
1560972395.6,286046994.5,N
1560972415.4,286046994.1,N
1560972435.3,286046996.9,N
1560972455.1,286046995.7,N
1560972475.8,286046994.7,N
1560972495.7,286046992.5,Y
1560972515.5,286046996.4,P
1560972535.3,286046994.8,P
1560972555.2,286046991.8,P
1560972575.0,286046992.3,Y
1560972575.9,286046992.3,P
1560972595.8,286046997.8,N
1560972615.6,286046995.1,N
1560972635.4,286046996.1,N
1560972655.3,286046994.0,Y
1560972675.1,286046999.4,P
1560972676.0,286046999.4,N
1560972695.8,286046998.6,N
1560972715.7,286046999.5,N
1560972735.5,286046999.6,N
1560972755.3,286046999.6,N
1560972775.2,286046998.5,N
1560972795.9,286046999.1,N
1560972815.7,286046999.1,N
1560972835.6,286046996.6,N
1560972855.4,286046999.1,N
1560972875.2,286046997.1,N
1560972895.1,286046999.1,N
1560972896.0,286046999.1,N
1560972915.8,286046998.6,N
1560972935.6,286046998.3,N
1560972955.5,286046998.9,N
1560972975.3,286046999.6,N
1560972995.1,286046998.8,N
1560973015.9,286046998.3,N
1560973035.7,286046999.1,N
1560973055.5,286047000.8,N
1560973075.4,286047002.6,N
1560973095.2,286047002.8,N
1560973115.0,286047002.8,N
1560973115.9,286047002.8,N
1560973135.8,286047002.5,N
1560973155.6,286047002.5,N
1560973175.4,286047001.4,N
1560973195.3,286047002.2,N
1560973215.1,286047002.0,N
1560973216.0,286047002.0,N
1560973235.8,286047001.9,N
1560973255.7,286047003.6,N
1560973275.5,286047004.3,N
1560973295.3,286047003.2,N
1560973315.2,286047004.2,N
1560973335.9,286047006.0,N
1560973355.7,286047004.3,N
1560973375.6,286047003.0,N
1560973395.4,286047005.4,N
1560973415.2,286047004.5,N
1560973435.1,286047007.4,Y
1560973436.0,286047007.4,P
1560973455.8,286047003.6,N
1560973475.6,286047003.4,N
1560973495.5,286047004.2,N
1560973515.3,286047005.8,Y
1560973535.1,286047000.0,P
1560973555.9,286046998.2,N
1560973575.7,286047000.9,N
1560973595.5,286047001.2,N
1560973615.4,286046998.8,N
1560973635.2,286046999.5,N
1560973655.0,286046996.8,N
1560973655.9,286046996.8,N
1560973675.8,286046996.7,N
1560973695.6,286046998.9,N
1560973715.4,286046999.2,N
1560973735.3,286046998.6,N
1560973755.1,286046998.5,N
1560973775.8,286046998.1,N
1560973795.7,286047000.3,N
1560973815.5,286047002.2,N
1560973835.3,286046999.8,N
1560973855.2,286047002.8,N
1560973875.0,286047002.0,N
1560973875.9,286047002.0,N
1560973895.7,286047002.1,N
1560973915.6,286047002.7,N
1560973935.4,286047002.1,N
1560973955.2,286047002.4,N
1560973975.1,286047002.2,N
1560973976.0,286047002.2,N
1560973995.8,286047001.7,N
1560974015.7,286047004.4,N
1560974035.5,286047003.2,N
1560974055.3,286047003.8,N
1560974075.2,286047003.4,N
1560974095.9,286047005.2,N
1560974115.7,286047005.6,N
1560974135.6,286047004.6,N
1560974155.4,286047003.0,N
1560974175.2,286047007.4,N
1560974195.1,286047005.3,N
1560974196.0,286047005.3,N
1560974215.8,286047004.7,N
1560974235.6,286047003.1,N
1560974255.5,286047005.5,N
1560974275.3,286047005.3,N
1560974295.1,286047004.8,N
1560974315.9,286047002.9,N
1560974335.7,286047002.9,N
1560974355.5,286047005.9,Y
1560974375.4,286047002.8,P
1560974395.2,286046999.7,N
